ANA786 RJFU-RJOO

Flight info

Callsign ANA786
Flight time 0h 49m
Altitude 35000
Route OOITA Y23 SPIDE Y231 MIRIO Y401 KAINA Y753 IZUMI
Aircraft B738/M-SDE2E3FGHIRWXY/LB1

Departure

Time 2026-04-23 13:26
Airport Nagasaki Airport (RJFU)

Arrival

Time 2026-04-23 14:15
Airport Osaka Itami International Airport (RJOO)
Time Latitude Longitude Altitude Speed Heading
2026-04-23 13:09 32.91336 129.92233 16 ft 0 kts 48°
2026-04-23 13:19 32.91327 129.92221 16 ft 2 kts 47°
2026-04-23 13:19 32.91316 129.92207 16 ft 2 kts 48°
2026-04-23 13:20 32.91306 129.92194 15 ft 2 kts 47°
2026-04-23 13:20 32.91296 129.92181 15 ft 2 kts 48°
2026-04-23 13:20 32.91286 129.92168 15 ft 2 kts 47°
2026-04-23 13:20 32.91276 129.92156 14 ft 2 kts 48°
2026-04-23 13:21 32.91266 129.92142 14 ft 2 kts 48°
2026-04-23 13:21 32.91256 129.92128 14 ft 2 kts 48°
2026-04-23 13:21 32.91246 129.92114 13 ft 2 kts 76°
2026-04-23 13:21 32.91248 129.92097 13 ft 2 kts 124°
2026-04-23 13:22 32.91254 129.92090 13 ft 0 kts 146°
2026-04-23 13:22 32.91255 129.92090 13 ft 0 kts 146°
2026-04-23 13:23 32.91254 129.92090 13 ft 0 kts 146°
2026-04-23 13:24 32.91241 129.92104 13 ft 6 kts 135°
2026-04-23 13:24 32.91192 129.92158 14 ft 12 kts 138°
2026-04-23 13:24 32.91129 129.92224 14 ft 11 kts 138°
2026-04-23 13:24 32.91074 129.92268 14 ft 8 kts 181°
2026-04-23 13:25 32.91025 129.92223 14 ft 9 kts 228°
2026-04-23 13:25 32.90983 129.92166 14 ft 10 kts 229°
2026-04-23 13:25 32.91002 129.92085 13 ft 18 kts 319°
2026-04-23 13:25 32.91318 129.91757 7 ft 101 kts 318°
2026-04-23 13:26 32.92023 129.91002 15 ft 168 kts 322°
2026-04-23 13:26 32.92890 129.90054 848 ft 170 kts 323°
2026-04-23 13:26 32.93755 129.89140 1745 ft 173 kts 324°
2026-04-23 13:26 32.94671 129.88181 2375 ft 181 kts 326°
2026-04-23 13:27 32.95645 129.87160 2908 ft 195 kts 326°
2026-04-23 13:27 32.96698 129.86046 3427 ft 211 kts 326°
2026-04-23 13:27 32.97842 129.84834 3934 ft 231 kts 325°
2026-04-23 13:27 32.99078 129.83531 4575 ft 245 kts 326°
2026-04-23 13:28 33.00531 129.82414 5149 ft 256 kts 342°
2026-04-23 13:28 33.02283 129.82079 5843 ft 261 kts
2026-04-23 13:28 33.04055 129.82548 6622 ft 266 kts 21°
2026-04-23 13:28 33.05707 129.83588 7412 ft 272 kts 37°
2026-04-23 13:29 33.07085 129.85150 8226 ft 278 kts 47°
2026-04-23 13:29 33.08358 129.86906 8965 ft 286 kts 49°
2026-04-23 13:29 33.09643 129.88707 9694 ft 292 kts 48°
2026-04-23 13:29 33.10994 129.90558 10369 ft 301 kts 47°
2026-04-23 13:30 33.12371 129.92546 10807 ft 319 kts 54°
2026-04-23 13:30 33.13411 129.94916 11173 ft 338 kts 71°
2026-04-23 13:30 33.13815 129.97771 11576 ft 356 kts 89°
2026-04-23 13:30 33.13569 130.00752 11948 ft 372 kts 99°
2026-04-23 13:31 33.13338 130.03885 12247 ft 389 kts 90°
2026-04-23 13:31 33.13444 130.07124 12749 ft 399 kts 86°
2026-04-23 13:31 33.13636 130.10435 13323 ft 407 kts 85°
2026-04-23 13:31 33.13855 130.13821 13896 ft 414 kts 85°
2026-04-23 13:32 33.14079 130.17279 14533 ft 420 kts 85°
2026-04-23 13:32 33.14298 130.20766 15192 ft 424 kts 85°
2026-04-23 13:32 33.14511 130.24266 15783 ft 430 kts 85°
2026-04-23 13:32 33.14722 130.27866 16342 ft 437 kts 86°
2026-04-23 13:33 33.14928 130.31453 16906 ft 442 kts 85°
2026-04-23 13:33 33.15137 130.35165 17447 ft 448 kts 86°
2026-04-23 13:33 33.15344 130.38872 17956 ft 454 kts 85°
2026-04-23 13:33 33.15552 130.42627 18471 ft 460 kts 86°
2026-04-23 13:34 33.15765 130.46483 18993 ft 466 kts 86°
2026-04-23 13:34 33.15976 130.50314 19537 ft 470 kts 86°
2026-04-23 13:34 33.16190 130.54208 19996 ft 476 kts 86°
2026-04-23 13:34 33.16405 130.58162 20557 ft 480 kts 87°
2026-04-23 13:35 33.16621 130.62169 21030 ft 485 kts 87°
2026-04-23 13:35 33.16835 130.66156 21450 ft 491 kts 88°
2026-04-23 13:35 33.17054 130.70244 21889 ft 496 kts 88°
2026-04-23 13:35 33.17274 130.74364 22329 ft 501 kts 88°
2026-04-23 13:36 33.17494 130.78522 22743 ft 506 kts 88°
2026-04-23 13:36 33.17713 130.82678 23188 ft 510 kts 89°
2026-04-23 13:36 33.17936 130.86905 23627 ft 514 kts 88°
2026-04-23 13:36 33.18159 130.91164 24034 ft 518 kts 89°
2026-04-23 13:37 33.18385 130.95502 24511 ft 522 kts 88°
2026-04-23 13:37 33.18608 130.99800 25024 ft 524 kts 88°
2026-04-23 13:37 33.18832 131.04137 25429 ft 528 kts 89°
2026-04-23 13:37 33.19057 131.08514 25794 ft 534 kts 89°
2026-04-23 13:38 33.19281 131.12933 26296 ft 535 kts 89°
2026-04-23 13:38 33.19505 131.17381 26631 ft 541 kts 89°
2026-04-23 13:38 33.19726 131.21826 27077 ft 543 kts 89°
2026-04-23 13:38 33.19949 131.26320 27587 ft 544 kts 89°
2026-04-23 13:39 33.20171 131.30835 28163 ft 543 kts 89°
2026-04-23 13:39 33.20388 131.35272 28727 ft 541 kts 89°
2026-04-23 13:39 33.20608 131.39775 29329 ft 539 kts 89°
2026-04-23 13:39 33.20821 131.44203 29803 ft 539 kts 89°
2026-04-23 13:40 33.21033 131.48651 30180 ft 542 kts 89°
2026-04-23 13:40 33.21244 131.53145 30581 ft 543 kts 89°
2026-04-23 13:40 33.21453 131.57638 30981 ft 544 kts 89°
2026-04-23 13:40 33.21679 131.62118 31348 ft 546 kts 88°
2026-04-23 13:41 33.22042 131.66618 31714 ft 548 kts 85°
2026-04-23 13:41 33.22681 131.71123 32084 ft 550 kts 78°
2026-04-23 13:41 33.23636 131.75526 32429 ft 550 kts 73°
2026-04-23 13:41 33.24860 131.79840 32764 ft 551 kts 69°
2026-04-23 13:42 33.26261 131.84100 33090 ft 552 kts 66°
2026-04-23 13:42 33.27760 131.88327 33347 ft 555 kts 65°
2026-04-23 13:42 33.29329 131.92625 33604 ft 558 kts 65°
2026-04-23 13:42 33.30894 131.96910 33935 ft 559 kts 65°
2026-04-23 13:43 33.32446 132.01231 34319 ft 559 kts 66°
2026-04-23 13:43 33.33952 132.05510 34732 ft 557 kts 66°
2026-04-23 13:43 33.35445 132.09822 35127 ft 556 kts 65°
2026-04-23 13:43 33.36900 132.14082 35475 ft 556 kts 66°
2026-04-23 13:44 33.38369 132.18433 35826 ft 556 kts 65°
2026-04-23 13:44 33.39804 132.22705 36014 ft 559 kts 66°
2026-04-23 13:44 33.41282 132.27124 36163 ft 563 kts 66°
2026-04-23 13:44 33.42728 132.31467 36472 ft 562 kts 66°
2026-04-23 13:45 33.44179 132.35822 36792 ft 561 kts 66°
2026-04-23 13:45 33.47105 132.44601 36805 ft 562 kts 65°
2026-04-23 13:46 33.49995 132.53279 36796 ft 564 kts 66°
2026-04-23 13:46 33.52874 132.61955 36806 ft 563 kts 66°
2026-04-23 13:47 33.55755 132.70673 36796 ft 561 kts 66°
2026-04-23 13:47 33.58657 132.79466 36796 ft 566 kts 66°
2026-04-23 13:48 33.61534 132.88211 36805 ft 560 kts 67°
2026-04-23 13:48 33.64146 132.97095 36816 ft 564 kts 72°
2026-04-23 13:49 33.65939 133.06302 36820 ft 563 kts 79°
2026-04-23 13:49 33.67203 133.15565 36819 ft 563 kts 83°
2026-04-23 13:50 33.68314 133.24817 36819 ft 562 kts 82°
2026-04-23 13:50 33.69442 133.34096 36814 ft 561 kts 81°
2026-04-23 13:51 33.70627 133.43506 36474 ft 564 kts 82°
2026-04-23 13:51 33.71215 133.48070 36200 ft 557 kts 81°
2026-04-23 13:51 33.71817 133.52705 35917 ft 555 kts 81°
2026-04-23 13:51 33.72414 133.57303 35637 ft 554 kts 81°
2026-04-23 13:52 33.73022 133.61971 35353 ft 557 kts 81°
2026-04-23 13:52 33.73621 133.66559 35078 ft 555 kts 82°
2026-04-23 13:52 33.74212 133.71101 34830 ft 553 kts 82°
2026-04-23 13:53 33.75396 133.80267 34822 ft 555 kts 82°
2026-04-23 13:53 33.76567 133.89452 34825 ft 555 kts 82°
2026-04-23 13:54 33.77722 133.98555 34820 ft 554 kts 82°
2026-04-23 13:54 33.78297 134.03117 34495 ft 558 kts 82°
2026-04-23 13:54 33.78881 134.07748 33391 ft 555 kts 82°
2026-04-23 13:54 33.79447 134.12247 32892 ft 541 kts 82°
2026-04-23 13:55 33.80024 134.16643 32555 ft 532 kts 81°
2026-04-23 13:55 33.80718 134.20972 31981 ft 529 kts 77°
2026-04-23 13:55 33.81699 134.25203 31608 ft 522 kts 71°
2026-04-23 13:55 33.82964 134.29289 30880 ft 522 kts 65°
2026-04-23 13:56 33.84424 134.33261 30185 ft 522 kts 63°
2026-04-23 13:56 33.86004 134.37189 29360 ft 524 kts 62°
2026-04-23 13:56 33.87636 134.41061 28638 ft 524 kts 60°
2026-04-23 13:56 33.89315 134.44975 27781 ft 526 kts 61°
2026-04-23 13:57 33.90987 134.48869 27129 ft 523 kts 61°
2026-04-23 13:57 33.92626 134.52714 26385 ft 523 kts 61°
2026-04-23 13:57 33.94264 134.56601 25710 ft 520 kts 62°
2026-04-23 13:57 33.95888 134.60487 24966 ft 519 kts 62°
2026-04-23 13:58 33.97487 134.64345 24444 ft 512 kts 62°
2026-04-23 13:58 33.99057 134.68158 23757 ft 510 kts 62°
2026-04-23 13:58 34.00610 134.71945 23218 ft 505 kts 62°
2026-04-23 13:58 34.02147 134.75703 22637 ft 500 kts 62°
2026-04-23 13:59 34.03679 134.79459 22100 ft 496 kts 62°
2026-04-23 13:59 34.05179 134.83136 21628 ft 489 kts 62°
2026-04-23 13:59 34.06665 134.86786 21092 ft 484 kts 63°
2026-04-23 13:59 34.08143 134.90414 20509 ft 481 kts 63°
2026-04-23 14:00 34.09123 134.92822 19876 ft 485 kts 63°
2026-04-23 14:00 34.11050 134.97560 19302 ft 464 kts 63°
2026-04-23 14:00 34.12440 135.00987 18823 ft 445 kts 63°
2026-04-23 14:00 34.13782 135.04303 18318 ft 430 kts 63°
2026-04-23 14:01 34.15064 135.07469 17547 ft 423 kts 63°
2026-04-23 14:01 34.16345 135.10638 16702 ft 419 kts 63°
2026-04-23 14:01 34.17610 135.13765 15906 ft 413 kts 63°
2026-04-23 14:01 34.18858 135.16852 15066 ft 407 kts 63°
2026-04-23 14:02 34.20080 135.19873 14452 ft 395 kts 62°
2026-04-23 14:02 34.21365 135.22679 14086 ft 376 kts 55°
2026-04-23 14:02 34.22949 135.25090 13557 ft 362 kts 40°
2026-04-23 14:02 34.24852 135.26978 12878 ft 353 kts 32°
2026-04-23 14:03 34.26873 135.28636 12392 ft 340 kts 28°
2026-04-23 14:03 34.28815 135.30139 12081 ft 324 kts 28°
2026-04-23 14:03 34.30673 135.31576 11740 ft 312 kts 28°
2026-04-23 14:03 34.32467 135.32988 11260 ft 305 kts 29°
2026-04-23 14:04 34.34208 135.34384 10899 ft 297 kts 30°
2026-04-23 14:04 34.35905 135.35763 10443 ft 295 kts 30°
2026-04-23 14:04 34.37569 135.37172 10077 ft 293 kts 32°
2026-04-23 14:04 34.39244 135.38580 9784 ft 287 kts 30°
2026-04-23 14:05 34.40885 135.39899 9442 ft 285 kts 30°
2026-04-23 14:05 34.42536 135.41220 9149 ft 281 kts 30°
2026-04-23 14:05 34.44084 135.42627 8853 ft 277 kts 40°
2026-04-23 14:05 34.45269 135.44453 8461 ft 276 kts 57°
2026-04-23 14:06 34.46170 135.46506 8035 ft 274 kts 62°
2026-04-23 14:06 34.47006 135.48537 7677 ft 267 kts 61°
2026-04-23 14:06 34.47851 135.50507 7217 ft 262 kts 60°
2026-04-23 14:06 34.48709 135.52420 6785 ft 255 kts 59°
2026-04-23 14:07 34.49567 135.54288 6332 ft 252 kts 60°
2026-04-23 14:07 34.51265 135.57967 5593 ft 242 kts 60°
2026-04-23 14:07 34.52077 135.59726 5332 ft 238 kts 59°
2026-04-23 14:08 34.52862 135.61433 5232 ft 228 kts 59°
2026-04-23 14:08 34.53628 135.63084 5173 ft 223 kts 57°
2026-04-23 14:08 34.54551 135.64600 5101 ft 219 kts 40°
2026-04-23 14:08 34.55852 135.65390 4979 ft 210 kts 11°
2026-04-23 14:09 34.57320 135.65418 4741 ft 210 kts 359°
2026-04-23 14:09 34.58771 135.65343 4516 ft 208 kts
2026-04-23 14:09 34.60199 135.65276 4317 ft 203 kts 354°
2026-04-23 14:09 34.61509 135.64622 4125 ft 204 kts 324°
2026-04-23 14:10 34.62383 135.63283 3980 ft 202 kts 310°
2026-04-23 14:10 34.63240 135.61966 3861 ft 194 kts 319°
2026-04-23 14:10 34.64196 135.60802 3715 ft 198 kts 322°
2026-04-23 14:10 34.65193 135.59637 3403 ft 200 kts 321°
2026-04-23 14:11 34.66179 135.58456 3149 ft 197 kts 321°
2026-04-23 14:11 34.67148 135.57289 2841 ft 195 kts 321°
2026-04-23 14:11 34.68093 135.56152 2575 ft 192 kts 321°
2026-04-23 14:11 34.69040 135.55016 2313 ft 190 kts 320°
2026-04-23 14:12 34.69979 135.53889 2052 ft 188 kts 320°
2026-04-23 14:12 34.70895 135.52786 1791 ft 183 kts 320°
2026-04-23 14:12 34.71764 135.51738 1586 ft 168 kts 320°
2026-04-23 14:12 34.72594 135.50755 1306 ft 167 kts 321°
2026-04-23 14:13 34.73455 135.49797 956 ft 165 kts 321°
2026-04-23 14:13 34.74220 135.48894 880 ft 140 kts 317°
2026-04-23 14:13 34.74898 135.48035 739 ft 144 kts 317°
2026-04-23 14:13 34.75632 135.47273 749 ft 138 kts 329°
2026-04-23 14:14 34.76439 135.46591 578 ft 145 kts 323°
2026-04-23 14:14 34.77161 135.45732 383 ft 142 kts 316°
2026-04-23 14:14 34.77864 135.44884 213 ft 143 kts 318°
2026-04-23 14:14 34.78581 135.44012 27 ft 144 kts 317°
2026-04-23 14:15 34.79092 135.43399 40 ft 55 kts 316°
2026-04-23 14:15 34.79318 135.43126 53 ft 15 kts 317°
2026-04-23 14:15 34.79378 135.43150 56 ft 7 kts 55°
2026-04-23 14:15 34.79382 135.43207 56 ft 6 kts 109°
2026-04-23 14:16 34.79356 135.43256 55 ft 8 kts 131°
2026-04-23 14:16 34.79307 135.43317 51 ft 12 kts 135°
2026-04-23 14:16 34.79244 135.43394 48 ft 11 kts 134°
2026-04-23 14:16 34.79180 135.43475 43 ft 14 kts 134°
2026-04-23 14:17 34.79129 135.43562 41 ft 9 kts 94°
2026-04-23 14:17 34.79135 135.43628 42 ft 6 kts 94°
2026-04-23 14:17 34.79123 135.43661 42 ft 4 kts 124°
2026-04-23 14:17 34.79119 135.43687 42 ft 2 kts 70°
2026-04-23 14:18 34.79145 135.43726 44 ft 8 kts 46°
2026-04-23 14:18 34.79170 135.43758 46 ft 1 kts 45°
2026-04-23 14:18 34.79172 135.43761 46 ft 1 kts 45°